Hancock, MI

8:18 PM EST on February 05, 2016 (GMT -0500)
Houghton County Memorial

Weather History for KCMX - November, 2012

Change the Weather History Date:

Friday, November 9, 2012

  Actual Average Record
Temperature  
Mean Temperature 36 °F -  
Max Temperature 41 °F 38 °F 64 °F (1999)
Min Temperature 30 °F 29 °F 14 °F (2003)
Degree Days  
Heating Degree Days 30    
Moisture  
Dew Point 32 °F    
Average Humidity 84    
Maximum Humidity 93    
Minimum Humidity 73    
Precipitation  
Precipitation 0.00 in - - ()
Sea Level Pressure  
Sea Level Pressure 30.15 in    
Wind  
Wind Speed 8 mph (NNE)    
Max Wind Speed 14 mph    
Max Gust Speed -    
Visibility 10 miles    
Events      
Averages and records for this station are not official NWS values.
T = Trace of Precipitation, MM = Missing Value Source: NWS Daily Summary

Daily Weather History Graph

Daily Weather History Graph

Search for Another Location

Airport or City:

Trip Planner

Search our weather history database for the weather conditions in past years. The results will help you decide how hot, cold, wet, or windy it might be!

Date:

Astronomy

Nov. 09, 2012 Rise Set
Actual Time 7:49 AM EST 5:25 PM EST
Civil Twilight 7:16 AM EST 5:58 PM EST
Nautical Twilight 6:40 AM EST 6:34 PM EST
Astronomical Twilight 6:04 AM EST 7:10 PM EST
Moon 2:30 AM EST (11/9) 2:54 PM EST (11/9)
Length of Visible Light 10h 41m
Length of Day
9h 35m
Waning Crescent, 23% of the Moon is Illuminated
Nov 9
Waning Crescent
Nov 13
New
Nov 20
First Quarter
Nov 28
Full
Dec 6
Last Quarter

Hourly Weather History & Observations

Time (EST) Temp. Windchill Dew Point Humidity Pressure Visibility Wind Dir Wind Speed Gust Speed Precip Events Conditions
12:04 AM 41.0 °F 35.8 °F 35.6 °F 81% 30.01 in 10.0 mi NNW 8.1 mph - N/A   Scattered Clouds
12:34 AM 39.2 °F 35.0 °F 35.6 °F 87% 30.02 in 10.0 mi NNW 5.8 mph - N/A   Mostly Cloudy
12:53 AM 41.0 °F 39.0 °F 37.0 °F 86% 30.05 in 10.0 mi North 3.5 mph - N/A   Overcast
1:53 AM 41.0 °F 35.8 °F 37.0 °F 86% 30.06 in 10.0 mi North 8.1 mph - N/A   Overcast
2:33 AM 41.0 °F 37.1 °F 37.4 °F 87% 30.05 in 10.0 mi NNE 5.8 mph - N/A   Overcast
2:53 AM 39.9 °F 34.5 °F 36.0 °F 86% 30.08 in 10.0 mi North 8.1 mph - N/A   Overcast
3:53 AM 39.0 °F 32.8 °F 34.0 °F 82% 30.09 in 10.0 mi North 9.2 mph - N/A   Overcast
4:53 AM 39.0 °F 32.3 °F 34.0 °F 82% 30.11 in 10.0 mi NNE 10.4 mph - N/A   Overcast
5:13 AM 37.4 °F 30.8 °F 33.8 °F 87% 30.09 in 10.0 mi NNE 9.2 mph - N/A   Overcast
5:53 AM 37.9 °F 32.1 °F 33.1 °F 83% 30.13 in 10.0 mi NNE 8.1 mph - N/A   Overcast
6:15 AM 37.4 °F 30.8 °F 33.8 °F 87% 30.11 in 10.0 mi NNE 9.2 mph - N/A   Overcast
6:38 AM 37.4 °F 31.4 °F 33.8 °F 87% 30.11 in 10.0 mi NNE 8.1 mph - N/A   Overcast
6:53 AM 37.0 °F 31.6 °F 33.1 °F 86% 30.14 in 10.0 mi NNE 6.9 mph - N/A   Overcast
7:36 AM 37.4 °F 32.1 °F 33.8 °F 87% 30.11 in 10.0 mi NNE 6.9 mph - N/A   Overcast
7:53 AM 37.0 °F 31.6 °F 34.0 °F 89% 30.16 in 10.0 mi North 6.9 mph - N/A   Overcast
8:14 AM 37.4 °F 31.4 °F 33.8 °F 87% 30.13 in 10.0 mi NNE 8.1 mph - N/A   Overcast
8:26 AM 37.4 °F 30.8 °F 33.8 °F 87% 30.13 in 10.0 mi NNE 9.2 mph - N/A   Overcast
8:45 AM 37.4 °F 32.1 °F 33.8 °F 87% 30.14 in 10.0 mi NE 6.9 mph - N/A   Overcast
8:53 AM 37.0 °F 31.0 °F 33.1 °F 86% 30.17 in 10.0 mi NNE 8.1 mph - N/A   Overcast
9:53 AM 37.9 °F 31.5 °F 33.1 °F 83% 30.18 in 10.0 mi NNE 9.2 mph - N/A   Overcast
10:00 AM 37.4 °F 29.8 °F 33.8 °F 87% 30.14 in 10.0 mi NE 11.5 mph - N/A   Overcast
10:53 AM 37.9 °F 32.7 °F 32.0 °F 79% 30.19 in 10.0 mi NE 6.9 mph - N/A   Overcast
11:53 AM 39.0 °F 33.4 °F 30.9 °F 73% 30.19 in 10.0 mi NE 8.1 mph - N/A   Overcast
12:53 PM 39.0 °F 36.8 °F 30.9 °F 73% 30.17 in 10.0 mi East 3.5 mph - N/A   Overcast
1:53 PM 39.0 °F 34.0 °F 32.0 °F 76% 30.17 in 10.0 mi NNE 6.9 mph - N/A   Overcast
2:53 PM 37.0 °F 28.5 °F 32.0 °F 82% 30.18 in 10.0 mi NNE 13.8 mph - N/A   Overcast
3:53 PM 36.0 °F 28.0 °F 30.9 °F 82% 30.18 in 10.0 mi NE 11.5 mph - N/A   Overcast
4:53 PM 35.1 °F 26.9 °F 28.9 °F 78% 30.20 in 10.0 mi NE 11.5 mph - N/A   Overcast
5:53 PM 33.1 °F 25.5 °F 28.0 °F 82% 30.21 in 10.0 mi NE 9.2 mph - N/A   Overcast
6:53 PM 32.0 °F 24.2 °F 28.0 °F 85% 30.23 in 10.0 mi ENE 9.2 mph - N/A   Overcast
7:23 PM 30.2 °F 21.3 °F 28.4 °F 93% 30.18 in 10.0 mi ENE 10.4 mph - N/A   Partly Cloudy
7:53 PM 30.9 °F 22.8 °F 26.1 °F 82% 30.22 in 10.0 mi ENE 9.2 mph - N/A   Clear
8:28 PM 30.2 °F 22.6 °F 26.6 °F 86% 30.18 in 10.0 mi ENE 8.1 mph - N/A   Mostly Cloudy
8:53 PM 30.0 °F 25.2 °F 27.0 °F 88% 30.23 in 10.0 mi East 4.6 mph - N/A   Mostly Cloudy
9:34 PM 30.2 °F 24.3 °F 26.6 °F 86% 30.19 in 10.0 mi ENE 5.8 mph - N/A   Partly Cloudy
9:53 PM 30.9 °F 25.2 °F 25.0 °F 79% 30.23 in 10.0 mi NE 5.8 mph - N/A   Mostly Cloudy
10:53 PM 30.0 °F 25.2 °F 25.0 °F 82% 30.23 in 10.0 mi NE 4.6 mph - N/A   Mostly Cloudy
11:53 PM 32.0 °F 23.6 °F 25.0 °F 75% 30.22 in 10.0 mi ENE 10.4 mph - N/A   Overcast